• In Hungary
  • List of Countries
  • For 7 days
  • Water Temperature
  • Satellite Maps
  • Weather Map
  • News
  • Weather Widgets
  • user-avatar
    Login

    Hourly Weather La Louviere

    Today, 24 October, Tuesday

    Time Temperature Precipitation Wind Pressure Humidity
    00:00 +12°C° 0 mm 3 mps 757 mmHg 95%
    01:00 +12°C° 0 mm 4 mps 757 mmHg 95%
    02:00 +12°C° 0 mm 4 mps 757 mmHg 95%
    03:00 +12°C° 0 mm 4 mps 756 mmHg 95%
    04:00 +12°C° 0 mm 4 mps 757 mmHg 95%
    05:00 +12°C° 0 mm 4 mps 757 mmHg 95%
    06:00 +13°C° 0 mm 4 mps 757 mmHg 95%
    07:00 +13°C° 0.4 mm 4 mps 757 mmHg 95%
    08:00 +13°C° 0.4 mm 5 mps 757 mmHg 94%
    09:00 +13°C° 0.4 mm 5 mps 757 mmHg 94%
    10:00 +14°C° 0.2 mm 5 mps 757 mmHg 94%
    11:00 +14°C° 0.2 mm 5 mps 757 mmHg 93%
    12:00 +15°C° 0.2 mm 5 mps 757 mmHg 93%
    13:00 +15°C° 0.1 mm 5 mps 757 mmHg 92%
    14:00 +17°C° 0.1 mm 4 mps 757 mmHg 92%
    15:00 +17°C° 0.1 mm 4 mps 757 mmHg 91%
    16:00 +17°C° 0 mm 4 mps 757 mmHg 92%
    17:00 +15°C° 0 mm 4 mps 757 mmHg 93%
    18:00 +16°C° 0 mm 3 mps 757 mmHg 95%
    19:00 +16°C° 0 mm 3 mps 757 mmHg 95%
    20:00 +14°C° 0 mm 3 mps 758 mmHg 95%
    21:00 +14°C° 0 mm 3 mps 758 mmHg 96%
    22:00 +14°C° 0 mm 4 mps 758 mmHg 95%
    23:00 +14°C° 0 mm 4 mps 758 mmHg 95%

    Tomorrow, 25 October, Wednesday

    Time Temperature Precipitation Wind Pressure Humidity
    00:00 +13°C° 0 mm 4 mps 757 mmHg 95%
    01:00 +13°C° 0 mm 4 mps 757 mmHg 95%
    02:00 +13°C° 0 mm 4 mps 757 mmHg 95%
    03:00 +13°C° 0 mm 4 mps 757 mmHg 95%
    04:00 +13°C° 0 mm 5 mps 757 mmHg 95%
    05:00 +13°C° 0 mm 5 mps 757 mmHg 95%
    06:00 +13°C° 0 mm 5 mps 757 mmHg 95%
    07:00 +14°C° 0 mm 5 mps 757 mmHg 93%
    08:00 +14°C° 0 mm 5 mps 758 mmHg 91%
    09:00 +15°C° 0 mm 5 mps 758 mmHg 88%
    10:00 +15°C° 0 mm 4 mps 758 mmHg 85%
    11:00 +17°C° 0 mm 4 mps 758 mmHg 82%
    12:00 +18°C° 0 mm 4 mps 758 mmHg 78%
    13:00 +18°C° 0 mm 3 mps 758 mmHg 78%
    14:00 +18°C° 0 mm 3 mps 758 mmHg 78%
    15:00 +18°C° 0 mm 2 mps 758 mmHg 78%
    16:00 +17°C° 0 mm 2 mps 758 mmHg 82%
    17:00 +16°C° 0 mm 2 mps 759 mmHg 86%
    18:00 +15°C° 0 mm 1 mps 759 mmHg 90%
    19:00 +15°C° 0 mm 1 mps 759 mmHg 90%
    20:00 +14°C° 0 mm 1 mps 759 mmHg 91%
    21:00 +14°C° 0 mm 1 mps 759 mmHg 91%
    22:00 +14°C° 0 mm 2 mps 759 mmHg 92%
    23:00 +14°C° 0 mm 2 mps 759 mmHg 92%

    Day after tomorrow, 26 October, Thursday

    Time Temperature Precipitation Wind Pressure Humidity
    00:00 +13°C° 0 mm 2 mps 759 mmHg 93%
    01:00 +13°C° 0 mm 2 mps 759 mmHg 93%
    02:00 +13°C° 0 mm 2 mps 759 mmHg 94%
    03:00 +13°C° 0 mm 2 mps 759 mmHg 94%
    04:00 +13°C° 0 mm 1 mps 759 mmHg 94%
    05:00 +12°C° 0 mm 1 mps 759 mmHg 94%
    06:00 +12°C° 0 mm 1 mps 759 mmHg 94%
    07:00 +14°C° 0 mm 1 mps 759 mmHg 91%
    08:00 +15°C° 0 mm 2 mps 760 mmHg 88%
    09:00 +16°C° 0 mm 2 mps 760 mmHg 85%
    10:00 +17°C° 0 mm 2 mps 760 mmHg 80%
    11:00 +18°C° 0 mm 2 mps 760 mmHg 76%
    12:00 +20°C° 0 mm 2 mps 760 mmHg 71%
    13:00 +20°C° 0 mm 2 mps 760 mmHg 73%
    14:00 +20°C° 0 mm 1 mps 759 mmHg 74%
    15:00 +20°C° 0 mm 1 mps 759 mmHg 76%
    16:00 +19°C° 0 mm 1 mps 759 mmHg 80%
    17:00 +18°C° 0 mm 1 mps 759 mmHg 84%
    18:00 +14°C° 0 mm 0 mps 759 mmHg 88%
    19:00 +15°C° 0 mm 1 mps 759 mmHg 88%
    20:00 +15°C° 0 mm 1 mps 759 mmHg 89%
    21:00 +15°C° 0 mm 1 mps 759 mmHg 90%
    22:00 +14°C° 0 mm 1 mps 759 mmHg 91%
    23:00 +14°C° 0 mm 2 mps 759 mmHg 92%

    27 October, Friday

    Time Temperature Precipitation Wind Pressure Humidity
    00:00 +14°C° 0 mm 2 mps 759 mmHg 93%
    01:00 +13°C° 0 mm 2 mps 759 mmHg 94%
    02:00 +13°C° 0 mm 2 mps 759 mmHg 94%
    03:00 +13°C° 0 mm 2 mps 759 mmHg 95%
    04:00 +13°C° 0 mm 2 mps 758 mmHg 95%
    05:00 +12°C° 0 mm 2 mps 758 mmHg 96%
    06:00 +12°C° 0 mm 2 mps 758 mmHg 96%
    07:00 +12°C° 0 mm 3 mps 759 mmHg 94%
    08:00 +13°C° 0 mm 3 mps 759 mmHg 92%
    09:00 +14°C° 0 mm 4 mps 759 mmHg 89%
    10:00 +14°C° 0.1 mm 4 mps 759 mmHg 86%
    11:00 +14°C° 0.1 mm 4 mps 760 mmHg 83%
    12:00 +14°C° 0.1 mm 4 mps 760 mmHg 79%
    13:00 +14°C° 0 mm 4 mps 760 mmHg 78%
    14:00 +14°C° 0 mm 4 mps 760 mmHg 76%
    15:00 +14°C° 0 mm 4 mps 760 mmHg 74%
    16:00 +12°C° 0 mm 3 mps 760 mmHg 79%
    17:00 +11°C° 0 mm 3 mps 760 mmHg 83%
    18:00 +9°C° 0 mm 2 mps 760 mmHg 88%
    19:00 +9°C° 0 mm 2 mps 761 mmHg 89%
    20:00 +9°C° 0 mm 2 mps 761 mmHg 90%
    21:00 +9°C° 0 mm 1 mps 761 mmHg 91%
    22:00 +9°C° 0 mm 1 mps 761 mmHg 90%
    23:00 +9°C° 0 mm 1 mps 761 mmHg 89%

    28 October, Saturday

    Time Temperature Precipitation Wind Pressure Humidity
    00:00 +9°C° 0 mm 1 mps 761 mmHg 88%
    01:00 +9°C° 0 mm 1 mps 760 mmHg 88%
    02:00 +8°C° 0 mm 1 mps 760 mmHg 89%
    03:00 +8°C° 0 mm 1 mps 760 mmHg 89%
    04:00 +8°C° 0 mm 1 mps 759 mmHg 90%
    05:00 +6°C° 0 mm 2 mps 759 mmHg 91%
    06:00 +6°C° 0 mm 2 mps 759 mmHg 91%
    07:00 +7°C° 0 mm 2 mps 758 mmHg 89%
    08:00 +8°C° 0 mm 3 mps 758 mmHg 86%
    09:00 +9°C° 0 mm 3 mps 757 mmHg 83%
    10:00 +10°C° 0 mm 3 mps 757 mmHg 79%
    11:00 +11°C° 0 mm 4 mps 756 mmHg 76%
    12:00 +12°C° 0 mm 4 mps 755 mmHg 72%
    13:00 +12°C° 0.1 mm 4 mps 754 mmHg 76%
    14:00 +12°C° 0.1 mm 3 mps 754 mmHg 79%
    15:00 +11°C° 0.1 mm 3 mps 753 mmHg 83%
    16:00 +11°C° 0.2 mm 3 mps 752 mmHg 87%
    17:00 +10°C° 0.2 mm 3 mps 752 mmHg 91%
    18:00 +10°C° 0.2 mm 3 mps 752 mmHg 95%
    19:00 +10°C° 0.4 mm 3 mps 752 mmHg 94%
    20:00 +10°C° 0.4 mm 4 mps 752 mmHg 93%
    21:00 +10°C° 0.4 mm 4 mps 752 mmHg 92%
    22:00 +10°C° 0 mm 4 mps 752 mmHg 91%
    23:00 +8°C° 0 mm 4 mps 752 mmHg 91%

    29 October, Sunday

    Time Temperature Precipitation Wind Pressure Humidity
    00:00 +7°C° 0 mm 4 mps 753 mmHg 91%
    01:00 +7°C° 0 mm 4 mps 753 mmHg 88%
    02:00 +7°C° 0 mm 4 mps 753 mmHg 86%
    03:00 +7°C° 0 mm 4 mps 753 mmHg 83%
    04:00 +8°C° 0 mm 4 mps 754 mmHg 82%
    05:00 +8°C° 0 mm 4 mps 754 mmHg 81%
    06:00 +8°C° 0 mm 4 mps 754 mmHg 80%
    07:00 +8°C° 0.1 mm 5 mps 755 mmHg 78%
    08:00 +8°C° 0.1 mm 5 mps 755 mmHg 77%
    09:00 +9°C° 0.1 mm 5 mps 756 mmHg 75%
    10:00 +9°C° 0.1 mm 5 mps 756 mmHg 72%
    11:00 +10°C° 0.1 mm 5 mps 756 mmHg 70%
    12:00 +10°C° 0.1 mm 5 mps 757 mmHg 67%
    13:00 +10°C° 0 mm 5 mps 757 mmHg 68%
    14:00 +10°C° 0 mm 5 mps 757 mmHg 70%
    15:00 +10°C° 0 mm 4 mps 757 mmHg 71%
    16:00 +10°C° 0 mm 4 mps 757 mmHg 75%
    17:00 +9°C° 0 mm 3 mps 757 mmHg 79%
    18:00 +8°C° 0 mm 3 mps 758 mmHg 83%
    19:00 +7°C° 0 mm 3 mps 758 mmHg 85%
    20:00 +7°C° 0 mm 3 mps 758 mmHg 87%
    21:00 +7°C° 0 mm 3 mps 758 mmHg 88%
    22:00 +5°C° 0 mm 3 mps 758 mmHg 88%
    23:00 +5°C° 0 mm 3 mps 758 mmHg 88%

    30 October, Monday

    Time Temperature Precipitation Wind Pressure Humidity
    00:00 +5°C° 0 mm 3 mps 758 mmHg 88%
    01:00 +5°C° 0 mm 3 mps 758 mmHg 87%
    02:00 +7°C° 0 mm 3 mps 757 mmHg 87%
    03:00 +7°C° 0 mm 3 mps 757 mmHg 86%
    04:00 +7°C° 0 mm 3 mps 757 mmHg 87%
    05:00 +8°C° 0 mm 3 mps 757 mmHg 87%
    06:00 +8°C° 0 mm 3 mps 757 mmHg 88%
    07:00 +8°C° 0.1 mm 3 mps 757 mmHg 88%
    08:00 +9°C° 0.1 mm 3 mps 758 mmHg 89%
    09:00 +9°C° 0.1 mm 3 mps 758 mmHg 89%
    10:00 +9°C° 0 mm 3 mps 758 mmHg 89%
    11:00 +10°C° 0 mm 3 mps 758 mmHg 88%
    12:00 +11°C° 0 mm 3 mps 758 mmHg 88%
    13:00 +11°C° 0.1 mm 3 mps 758 mmHg 88%
    14:00 +12°C° 0.1 mm 2 mps 758 mmHg 88%
    15:00 +12°C° 0.1 mm 2 mps 758 mmHg 88%
    16:00 +12°C° 0.1 mm 2 mps 758 mmHg 90%
    17:00 +10°C° 0.1 mm 2 mps 759 mmHg 92%
    18:00 +10°C° 0.1 mm 2 mps 759 mmHg 94%
    19:00 +10°C° 0 mm 1 mps 759 mmHg 94%
    20:00 +10°C° 0 mm 1 mps 759 mmHg 95%
    21:00 +9°C° 0 mm 1 mps 759 mmHg 95%
    22:00 +9°C° 0 mm 1 mps 759 mmHg 95%
    23:00 +9°C° 0 mm 1 mps 759 mmHg 96%
    Show more